Regional Weather Roundup
Issued by NWS

Home | Current Version | Previous Version | Text Only | Print | Product List | Glossary Off
Versions: 1 2 3 4 5 6 7 8 9 10 11 12 13 14 15 16 17 18 19 20 21 22 23 24 25 26 27 28 29 30 31 32 33 34 35 36 37 38 39 40 41 42 43 44 45 46 47 48 49 50

000
ASUS43 KLOT 030012
RWRIL

ILLINOIS REGIONAL WEATHER ROUNDUP
NATIONAL WEATHER SERVICE CHICAGO/ROMEOVILLE IL
700 PM CDT SUN AUG 02 2015

NOTE: "FAIR" INDICATES FEW OR NO CLOUDS BELOW 12,000 FEET WITH NO
SIGNIFICANT WEATHER AND/OR OBSTRUCTIONS TO VISIBILITY.

* THESE STATIONS ARE NOT UNDER NWS QUALITY CONTROL. THEY ALSO MAY NOT
  REPORT WEATHER SUCH AS PRECIPITATION OR FOG.

ILZ001-002-007-009-015-016-024-030100-
NORTHWEST ILLINOIS

CITY           SKY/WX    TMP DP  RH WIND       PRES   REMARKS
MOLINE         SUNNY     88  74  63 SW10      29.70F HX  96
6HR MIN TEMP:  88; 6HR MAX TEMP:  91;

STERLING*      SUNNY     88  73  62 W13G18    29.67F HX  96
SAVANNA*       MOSUNNY   88  73  60 SW10      29.67F HX  95
$$

ILZ003-004-008-010-011-017-018-030100-
NORTH CENTRAL ILLINOIS

CITY           SKY/WX    TMP DP  RH WIND       PRES   REMARKS
ROCKFORD       MOSUNNY   87  71  58 SW17G23   29.67F HX  93
6HR MIN TEMP:  86; 6HR MAX TEMP:  91;

FREEPORT*      PTSUNNY   84  74  70 SW14G24   29.68F HX  91
ROCHELLE*      MOSUNNY   84  73  69 SW15G26   29.69S HX  91
DE KALB*       PTSUNNY   85  73  67 SW18G26   29.70S HX  91
PERU*          MOSUNNY   85  69  57 SW15      29.72S HX  89
$$

ILZ005-006-012>014-019>023-030100-
NORTHEAST ILLINOIS

CITY           SKY/WX    TMP DP  RH WIND       PRES   REMARKS
CHICAGO-OHARE  PTSUNNY   87  70  56 SW20G36   29.66R HX  92
6HR MIN TEMP:  75; 6HR MAX TEMP:  91; 6HR PCP:  0.12;

CHICAGO-MIDWAY MOSUNNY   90  69  50 SW23G33   29.67S HX  94
6HR MIN TEMP:  89; 6HR MAX TEMP:  95;

AURORA         MOSUNNY   87  70  56 SW20      29.69S HX  92
6HR MIN TEMP:  84; 6HR MAX TEMP:  90;

LANSING*       SUNNY     86  70  57 SW21G32   29.69F HX  91
JOLIET*        SUNNY     89  71  56 SW15G24   29.69S HX  94
WAUKEGAN       MOSUNNY   86  69  56 SW22G35   29.62S HX  90
6HR MIN TEMP:  86; 6HR MAX TEMP:  91;

DUPAGE AIRPORT MOSUNNY   86  71  60 SW21G31   29.68R HX  91
6HR MIN TEMP:  77; 6HR MAX TEMP:  91; 6HR PCP:  0.21;

KANKAKEE*      SUNNY     85  73  67 SW15G21   29.73F HX  92
WHEELING       PTSUNNY   89  69  51 SW20G39   29.66R HX  93
6HR MIN TEMP:  85; 6HR MAX TEMP:  92;

MORRIS*        SUNNY     86  70  58 SW18G28   29.69S HX  91
ROMEOVILLE*    MOSUNNY   86  67  52 SW18G26   29.69S HX  89
NORTHERLY ISL    N/A     88  66  48 SW15        N/A  HX  90
$$

LMZ740>746-030100-
SOUTHERN LAKE MICHIGAN

STATION/POSITION SKY/WX   TEMP    WIND        PRES    VSBY  WAVE
                          AIR SEA DIR/SP/G                  HT/PER
                          (F)     (DEG/KT/KT) (MB)    (MI)  (FT/S)
HARRISON CRIB              88     220/ 31/ 39   N/A
BURNHAM HARBOR             88     250/ 11/ 21   N/A
CALUMET HARBOR             88     220/ 13/ 22   N/A
BURNS HARBOR               87     230/ 20/ 26 1005.8R
MICHIGAN CITY              86     190/ 21/ 28   N/A
MICHIGAN CITY 6N           82 74  230/ 17/ 25   N/A           5/ 4
ST. JOSEPH                 80 74  250/ 19/ 21   N/A           5/ 4
$$

ILZ025>027-034>036-040-047-049-050-058-095>099-030100-
WEST-CENTRAL ILLINOIS

CITY           SKY/WX    TMP DP  RH WIND       PRES   REMARKS
QUINCY         SUNNY     86  73  65 SW9       29.78F HX  93
GALESBURG*     SUNNY     85  73  66 SW12      29.74F HX  92
MACOMB*        SUNNY     86  72  63 SW9       29.77F HX  92
JACKSONVILLE*  SUNNY     88  73  60 S8        29.79F HX  95
PITTSFIELD*    SUNNY     87  72  59 SW7       29.81F HX  93
$$

ILZ028>032-037-038-041>044-048-051>054-059>061-030100-
CENTRAL ILLINOIS

CITY           SKY/WX    TMP DP  RH WIND       PRES   REMARKS
PONTIAC        SUNNY     86  74  65 SW13G20   29.74F HX  94
BLOOMINGTON    MOSUNNY   86  71  60 SW18G24   29.78F HX  91
DECATUR        SUNNY     87  70  56 SW12      29.80F HX  92
PEORIA         SUNNY     88  71  57 SW15      29.75F HX  94
6HR MIN TEMP:  88; 6HR MAX TEMP:  94;

LACON*         SUNNY     86  70  59 SW12G17   29.72F HX  91
LINCOLN*       SUNNY     88  68  51 SW8       29.77F HX  92
SPRINGFIELD    SUNNY     87  70  56 SW9       29.80F HX  92
6HR MIN TEMP:  87; 6HR MAX TEMP:  92;

TAYLORVILLE    SUNNY     84  72  65 SW7       29.82F HX  89
$$

ILZ033-039-045-046-055>057-062-063-030100-
EAST-CENTRAL ILLINOIS

CITY           SKY/WX    TMP DP  RH WIND       PRES   REMARKS
CHAMPAIGN      SUNNY     85  72  65 SW9       29.81F HX  91
DANVILLE*      MOSUNNY   83  70  64 SW10G16   29.77F HX  87
MATTOON        SUNNY     86  68  54 SW8       29.82F HX  89
PARIS*         SUNNY     85  72  65 S7        29.82F HX  90
$$

ILZ079-100>102-030100-
SOUTHWEST ILLINOIS

CITY           SKY/WX    TMP DP  RH WIND       PRES   REMARKS
ALTON          MOSUNNY   88  70  55 SW9       29.83F HX  92
BELLEVILLE     SUNNY     90  71  54 SW7       29.83F HX  96
CAHOKIA*       MOSUNNY   91  67  44 SW7       29.83F HX  94
SPARTA*        SUNNY     88  71  57 SW6       29.86F HX  94
$$

ILZ064>066-069>071-074>076-080>082-084>086-088>090-092>094-030100-
SOUTH-CENTRAL ILLINOIS

CITY           SKY/WX    TMP DP  RH WIND       PRES   REMARKS
CARBONDALE     SUNNY     87  72  60 S8        29.87F HX  93
6HR MIN TEMP:  87; 6HR MAX TEMP:  90;

CAIRO*         SUNNY     87  71  59 S5        29.87F HX  92
EFFINGHAM*     SUNNY     87  67  51 S5        29.85F HX  90
MARION         SUNNY     88  73  62 SW6       29.88F HX  96
MT. VERNON     SUNNY     90  72  55 S10       29.87F HX  96
CENTRALIA*     SUNNY     87  71  58 S7        29.85F HX  92
SALEM*         SUNNY     89  71  54 S8        29.85F HX  94
METROPOLIS*    SUNNY     85  74  69 S3        29.89F HX  93
$$

ILZ067-068-072-073-078-083-087-091-030100-
SOUTHEAST ILLINOIS

CITY           SKY/WX    TMP DP  RH WIND       PRES   REMARKS
LAWRENCEVILLE  SUNNY     85  71  63 S9        29.86F HX  90
FLORA*         SUNNY     86  69  56 S7        29.86F HX  90
FAIRFIELD*     SUNNY     86  73  64 S7        29.85F HX  93
HARRISBURG*    SUNNY     86  73  64 SW6       29.89F HX  93
ROBINSON*      SUNNY     84  72  65 S7        29.86F HX  89
CARMI*         SUNNY     84  69  61 S7        29.87F HX  88
$$

ABBREVIATIONS USED IN REMARKS
   TC - TEMPERATURE IN CELSIUS
  WCI - WIND CHILL INDEX
   HX - HEAT INDEX
  VSB - VISIBILITY
$$



USA.gov is the U.S. government's official web portal to all federal, state and local government web resources and services.